Weather History for Lewisburg, WV

Change the Weather History Date:

Sunday, February 17, 2013

  Actual Average Record
Temperature  
Mean Temperature 14 °F 32 °F  
Max Temperature 19 °F 43 °F 68 °F (1961)
Min Temperature 8 °F 21 °F 2 °F (1973)
Degree Days  
Heating Degree Days 52    
Month to date heating degree days  
Cooling Degree Days 0    
Month to date cooling degree days  
Year to date cooling degree days  
Moisture  
Dew Point 0 °F    
Average Humidity 54    
Maximum Humidity 79    
Minimum Humidity 38    
Precipitation  
Precipitation 0.00 in 0.11 in 1.35 in (1982)
Month to date precipitation 1.77  
Year to date precipitation 4.92  
Snow  
Snow 0.00 in - - ()
Month to date snowfall  
Snow Depth -    
Sea Level Pressure  
Sea Level Pressure 30.02 in    
Wind  
Wind Speed 9 mph (WNW)    
Max Wind Speed 14 mph    
Max Gust Speed 24 mph    
Visibility 9 miles    
Events Snow    
T = Trace of Precipitation, MM = Missing Value Source: NWS Daily Summary

Daily Weather History Graph

Daily Weather History Graph

Search for Another Location

Airport:

Trip Planner

Search our weather history database for the weather conditions in past years. The results will help you decide how hot, cold, wet, or windy it might be!

Date:

Astronomy

Feb. 17, 2013 Rise Set
Actual Time 7:08 AM EST 6:02 PM EST
Civil Twilight 6:41 AM EST 6:29 PM EST
Nautical Twilight 6:11 AM EST 7:00 PM EST
Astronomical Twilight 5:40 AM EST 7:30 PM EST
Moon 11:08 AM EST (2/17) 12:49 AM EST (2/17)
Length of Visible Light 11h 47m
Length of Day
10h 54m
Waxing Crescent, 49% of the Moon is Illuminated
Feb 17
Waxing Crescent
Feb 17
First Quarter
Feb 25
Full
Mar 4
Last Quarter
Mar 11
New

Hourly Weather History & Observations

Time (EST) Temp. Windchill Dew Point Humidity Pressure Visibility Wind Dir Wind Speed Gust Speed Precip Events Conditions
12:15 AM 15.8 °F 2.1 °F 10.4 °F 79% 29.88 in 1.5 mi NNW 12.7 mph 20.7 mph N/A Snow Light Snow
12:35 AM 15.8 °F 5.1 °F 10.4 °F 79% 29.88 in 7.0 mi NNW 8.1 mph 17.3 mph N/A Snow Light Snow
12:55 AM 15.8 °F 3.4 °F 5.0 °F 62% 29.89 in 10.0 mi NNW 10.4 mph 18.4 mph N/A   Mostly Cloudy
1:15 AM 15.8 °F 1.4 °F 3.2 °F 58% 29.89 in 7.0 mi NNW 13.8 mph 20.7 mph N/A   Mostly Cloudy
1:35 AM 14.0 °F 1.2 °F 3.2 °F 62% 29.89 in 10.0 mi NW 10.4 mph - N/A   Mostly Cloudy
1:55 AM 14.0 °F 3.9 °F 3.2 °F 62% 29.90 in 10.0 mi WNW 6.9 mph 16.1 mph N/A   Overcast
2:15 AM 14.0 °F 0.5 °F 3.2 °F 62% 29.89 in 10.0 mi WNW 11.5 mph 19.6 mph N/A   Scattered Clouds
2:35 AM 14.0 °F 1.2 °F 1.4 °F 57% 29.90 in 10.0 mi NW 10.4 mph 23.0 mph N/A   Clear
2:55 AM 12.2 °F -0.2 °F 1.4 °F 62% 29.90 in 10.0 mi WNW 9.2 mph 17.3 mph N/A   Scattered Clouds
3:15 AM 12.2 °F -1.0 °F 1.4 °F 62% 29.90 in 10.0 mi NW 10.4 mph 18.4 mph N/A   Clear
3:35 AM 12.2 °F -1.0 °F 1.4 °F 62% 29.90 in 10.0 mi WNW 10.4 mph 17.3 mph N/A   Scattered Clouds
3:55 AM 12.2 °F 0.7 °F -0.4 °F 57% 29.91 in 7.0 mi WNW 8.1 mph 17.3 mph N/A   Clear
4:15 AM 12.2 °F 0.7 °F 1.4 °F 62% 29.91 in 10.0 mi WNW 8.1 mph 16.1 mph N/A   Scattered Clouds
4:35 AM 12.2 °F 0.7 °F 1.4 °F 62% 29.91 in 10.0 mi WNW 8.1 mph - N/A   Mostly Cloudy
4:55 AM 12.2 °F -0.2 °F 1.4 °F 62% 29.91 in 10.0 mi WNW 9.2 mph 18.4 mph N/A   Overcast
5:15 AM 10.4 °F -2.4 °F 1.4 °F 67% 29.92 in 10.0 mi WNW 9.2 mph - N/A   Scattered Clouds
5:35 AM 10.4 °F -2.4 °F 3.2 °F 73% 29.92 in 4.0 mi NW 9.2 mph 18.4 mph N/A Snow Light Snow
5:55 AM 10.4 °F -3.3 °F 3.2 °F 73% 29.93 in 2.0 mi WNW 10.4 mph 16.1 mph N/A Snow Light Snow
6:15 AM 10.4 °F 0.8 °F 3.2 °F 73% 29.93 in 5.0 mi WNW 5.8 mph - N/A Snow Light Snow
6:35 AM 10.4 °F -1.5 °F 1.4 °F 67% 29.95 in 3.0 mi WNW 8.1 mph 19.6 mph N/A Snow Light Snow
6:55 AM 10.4 °F -4.1 °F -0.4 °F 62% 29.96 in 10.0 mi NW 11.5 mph 16.1 mph N/A   Overcast
7:15 AM 8.6 °F -2.6 °F 1.4 °F 73% 29.96 in 5.0 mi North 6.9 mph 16.1 mph N/A Snow Light Snow
7:35 AM 10.4 °F -0.4 °F -0.4 °F 62% 29.97 in 7.0 mi NW 6.9 mph - N/A   Overcast
7:55 AM 10.4 °F -0.4 °F -0.4 °F 62% 29.98 in 10.0 mi NW 6.9 mph 16.1 mph N/A   Overcast
8:15 AM 10.4 °F 0.8 °F -0.4 °F 62% 29.98 in 10.0 mi WNW 5.8 mph - N/A   Overcast
8:55 AM 10.4 °F 2.2 °F 3.2 °F 73% 30.00 in 1.8 mi NW 4.6 mph - N/A Snow Light Snow
9:15 AM 10.4 °F 0.8 °F 3.2 °F 73% 30.01 in 1.8 mi West 5.8 mph - N/A Snow Light Snow
10:15 AM 12.2 °F 0.7 °F -2.2 °F 53% 30.03 in 10.0 mi WNW 8.1 mph 18.4 mph N/A   Overcast
10:35 AM 12.2 °F -1.0 °F -2.2 °F 53% 30.03 in 7.0 mi WNW 10.4 mph 20.7 mph N/A   Overcast
10:55 AM 14.0 °F -0.8 °F -2.2 °F 49% 30.03 in 10.0 mi WNW 13.8 mph 23.0 mph N/A   Overcast
11:15 AM 14.0 °F 2.0 °F -2.2 °F 49% 30.04 in 10.0 mi NW 9.2 mph 18.4 mph N/A   Overcast
11:35 AM 14.0 °F 3.9 °F -2.2 °F 49% 30.04 in 10.0 mi NW 6.9 mph 18.4 mph N/A   Overcast
11:55 AM 14.0 °F -0.8 °F -0.4 °F 53% 30.05 in 10.0 mi NNW 13.8 mph 19.6 mph N/A   Overcast
12:15 PM 14.0 °F 2.0 °F -2.2 °F 49% 30.04 in 10.0 mi NW 9.2 mph 20.7 mph N/A   Overcast
12:35 PM 14.0 °F 2.9 °F -2.2 °F 49% 30.04 in 10.0 mi West 8.1 mph 16.1 mph N/A   Overcast
12:55 PM 17.6 °F 5.0 °F -0.4 °F 45% 30.04 in 10.0 mi WNW 11.5 mph 24.2 mph N/A   Overcast
1:15 PM 15.8 °F 2.1 °F -0.4 °F 49% 30.03 in 10.0 mi NW 12.7 mph 18.4 mph N/A   Scattered Clouds
1:55 PM 17.6 °F 4.3 °F -4.0 °F 38% 30.03 in 10.0 mi WNW 12.7 mph 23.0 mph N/A   Scattered Clouds
2:15 PM 19.4 °F 7.2 °F -0.4 °F 42% 30.03 in 10.0 mi NW 11.5 mph 19.6 mph N/A   Mostly Cloudy
2:35 PM 17.6 °F 5.0 °F -0.4 °F 45% 30.03 in 10.0 mi NW 11.5 mph 18.4 mph N/A   Scattered Clouds
2:55 PM 19.4 °F 6.0 °F -0.4 °F 42% 30.04 in 10.0 mi NNW 13.8 mph - N/A   Scattered Clouds
3:15 PM 19.4 °F 6.6 °F -0.4 °F 42% 30.04 in 10.0 mi NW 12.7 mph 19.6 mph N/A   Scattered Clouds
3:35 PM 19.4 °F 8.6 °F -0.4 °F 42% 30.04 in 10.0 mi NNW 9.2 mph 18.4 mph N/A   Clear
3:55 PM 19.4 °F 7.9 °F -2.2 °F 39% 30.04 in 10.0 mi NW 10.4 mph 18.4 mph N/A   Clear
4:15 PM 19.4 °F 7.2 °F -0.4 °F 42% 30.05 in 10.0 mi West 11.5 mph 19.6 mph N/A   Scattered Clouds
4:35 PM 19.4 °F 8.6 °F -2.2 °F 39% 30.05 in 10.0 mi NW 9.2 mph 17.3 mph N/A   Scattered Clouds
4:55 PM 19.4 °F 6.6 °F -2.2 °F 39% 30.05 in 10.0 mi West 12.7 mph 23.0 mph N/A   Clear
5:15 PM 17.6 °F 5.7 °F -0.4 °F 45% 30.06 in 10.0 mi WNW 10.4 mph 16.1 mph N/A   Clear
5:35 PM 17.6 °F 9.3 °F -0.4 °F 45% 30.08 in 10.0 mi WNW 5.8 mph 17.3 mph N/A   Clear
5:55 PM 17.6 °F 7.3 °F -0.4 °F 45% 30.09 in 10.0 mi WNW 8.1 mph - N/A   Clear
6:15 PM 17.6 °F 6.4 °F -0.4 °F 45% 30.10 in 10.0 mi WNW 9.2 mph - N/A   Clear
6:35 PM 17.6 °F 5.7 °F -0.4 °F 45% 30.10 in 10.0 mi West 10.4 mph 17.3 mph N/A   Clear
6:55 PM 17.6 °F 8.2 °F -0.4 °F 45% 30.10 in 10.0 mi WNW 6.9 mph - N/A   Clear
7:15 PM 17.6 °F 10.7 °F -0.4 °F 45% 30.11 in 10.0 mi WNW 4.6 mph - N/A   Clear
7:35 PM 17.6 °F 12.3 °F -0.4 °F 45% 30.12 in 10.0 mi West 3.5 mph - N/A   Clear
7:55 PM 15.8 °F - -0.4 °F 49% 30.12 in 10.0 mi Calm Calm - N/A   Clear
8:15 PM 15.8 °F - -0.4 °F 49% 30.12 in 10.0 mi Calm Calm - N/A   Clear
8:35 PM 15.8 °F 10.2 °F -0.4 °F 49% 30.13 in 10.0 mi WSW 3.5 mph - N/A   Clear
8:55 PM 15.8 °F 7.2 °F -0.4 °F 49% 30.14 in 10.0 mi WSW 5.8 mph - N/A   Clear
9:15 PM 15.8 °F 8.6 °F -0.4 °F 49% 30.14 in 10.0 mi SSW 4.6 mph - N/A   Clear
9:35 PM 14.0 °F 8.2 °F -0.4 °F 53% 30.14 in 10.0 mi WSW 3.5 mph - N/A   Clear
9:55 PM 15.8 °F - -0.4 °F 49% 30.15 in 10.0 mi Calm Calm - N/A   Clear
10:15 PM 15.8 °F 7.2 °F -0.4 °F 49% 30.15 in 10.0 mi West 5.8 mph - N/A   Clear
10:55 PM 15.8 °F 7.2 °F -0.4 °F 49% 30.15 in 10.0 mi West 5.8 mph - N/A   Clear
11:15 PM 15.8 °F 5.1 °F -0.4 °F 49% 30.15 in 10.0 mi West 8.1 mph - N/A   Clear
11:35 PM 15.8 °F 8.6 °F -0.4 °F 49% 30.15 in 10.0 mi WNW 4.6 mph - N/A   Clear
11:55 PM 14.0 °F 6.5 °F 1.4 °F 57% 30.15 in 10.0 mi West 4.6 mph - N/A   Clear